GW5739 Weather Reports


time (UTC)temp
F
wind
direction
speed
knots
gust
knots
rain 1hr
in
rain 24hr
in
rain mn
in
humidity
%
barometer
mb
20260503194604 76 289 0.0 3.5 0.00 0.00 0.00 50 1013.3
20260503194052 76 270 0.0 6.1 0.00 0.00 0.00 50 1013.4
20260503193552 75 212 0.0 6.1 0.00 0.00 0.00 52 1013.4
20260503193124 74 23 0.9 6.1 0.00 0.00 0.00 51 1013.5
20260503192552 74 18 0.9 5.2 0.00 0.00 0.00 50 1013.5
20260503192053 74 20 0.9 4.3 0.00 0.00 0.00 49 1013.6
20260503191600 74 10 0.0 5.2 0.00 0.00 0.00 51 1013.6
20260503191054 73 20 0.9 5.2 0.00 0.00 0.00 53 1013.6
20260503190553 73 348 1.7 5.2 0.00 0.00 0.00 52 1013.6
20260503190055 72 277 0.9 5.2 0.00 0.00 0.00 56 1013.7
20260503185552 73 26 0.9 5.2 0.00 0.00 0.00 56 1013.9
20260503185052 72 0 0.9 4.3 0.00 0.00 0.00 59 1013.9
20260503184558 71 335 0.9 4.3 0.00 0.00 0.00 61 1013.9
20260503184052 71 0 1.7 5.2 0.00 0.00 0.00 62 1013.9
20260503183552 71 285 1.7 5.2 0.00 0.00 0.00 62 1014.0
20260503183057 70 255 1.7 5.2 0.00 0.00 0.00 61 1014.1
20260503182556 70 284 0.9 4.3 0.00 0.00 0.00 64 1014.2
20260503182053 69 0 0.9 5.2 0.00 0.00 0.00 65 1014.3
20260503181623 69 283 1.7 5.2 0.00 0.00 0.00 65 1014.3
20260503181053 68 0 0.0 5.2 0.00 0.00 0.00 66 1014.3
20260503180554 68 51 0.9 4.3 0.00 0.00 0.00 64 1014.4
20260503180126 68 17 0.0 4.3 0.00 0.00 0.00 69 1014.4
20260503175556 67 311 0.0 4.3 0.00 0.00 0.00 67 1014.4
20260503175050 67 286 0.0 4.3 0.00 0.00 0.00 68 1014.6
20260503174558 68 267 1.7 3.5 0.00 0.00 0.00 68 1014.5
20260503174052 67 310 0.0 3.5 0.00 0.00 0.00 69 1014.4
20260503173552 67 283 0.9 3.5 0.00 0.00 0.00 68 1014.5
20260503173100 67 189 0.0 4.3 0.00 0.00 0.00 69 1014.6
20260503172555 66 277 1.7 4.3 0.00 0.00 0.00 69 1014.6
20260503172053 66 0 0.9 2.6 0.00 0.00 0.00 69 1014.6
20260503171556 66 345 0.0 3.5 0.00 0.00 0.00 71 1014.7
20260503171053 66 280 0.0 4.3 0.00 0.00 0.00 71 1014.7
20260503170553 65 0 1.7 4.3 0.00 0.00 0.00 69 1014.7
20260503150552 55 23 0.9 3.5 0.00 0.00 0.00 85 1015.1
20260503131052 48 0 0.0 0.0 0.00 0.00 0.00 94 1014.7
20260503130553 48 0 0.0 0.0 0.00 0.00 0.00 94 1014.7
20260503120109 48 0 0.0 0.0 0.00 0.00 0.00 93 1014.9
20260503110552 49 0 0.0 0.0 0.00 0.00 0.00 93 1015.0
20260503100108 49 0 0.0 0.0 0.00 0.00 0.00 91 1015.0
20260503081559 51 0 0.0 0.0 0.00 0.00 0.00 90 1015.2
20260503081053 51 0 0.0 0.0 0.00 0.00 0.00 90 1015.2
20260503080553 52 0 0.0 0.0 0.00 0.00 0.00 90 1015.2
20260503072554 52 0 0.0 0.0 0.00 0.00 0.00 87 1015.0
20260503072054 52 0 0.0 0.0 0.00 0.00 0.00 87 1014.8
20260503071558 52 0 0.0 0.0 0.00 0.00 0.00 87 1014.9
20260503071055 52 0 0.0 0.0 0.00 0.00 0.00 87 1014.9
20260503070553 52 0 0.0 0.0 0.00 0.00 0.00 87 1014.9
20260503060114 55 0 0.0 0.0 0.00 0.00 0.00 83 1014.8
20260503055053 55 0 0.0 0.0 0.00 0.00 0.00 79 1014.7
20260503054553 56 0 0.0 0.0 0.00 0.00 0.00 80 1014.7
20260503054053 56 0 0.0 0.0 0.00 0.00 0.00 79 1014.8
20260503053555 56 0 0.0 0.0 0.00 0.00 0.00 79 1014.9
20260503053103 56 0 0.0 0.0 0.00 0.00 0.00 79 1014.9
20260503052556 55 0 0.0 0.0 0.00 0.00 0.00 80 1014.9
20260503052053 55 0 0.0 0.0 0.00 0.00 0.00 80 1014.9
20260503051553 56 0 0.0 0.0 0.00 0.00 0.00 80 1014.9
20260503051052 56 0 0.0 0.0 0.00 0.00 0.00 80 1014.9
20260503050552 56 0 0.0 0.0 0.00 0.00 0.00 79 1014.8
20260503050056 57 0 0.0 0.0 0.00 0.00 0.00 80 1014.8
20260503045554 57 0 0.0 0.0 0.00 0.00 0.00 79 1014.7
20260503045056 57 0 0.0 0.0 0.00 0.00 0.00 78 1014.7
20260503044619 58 0 0.0 0.0 0.00 0.00 0.00 79 1014.6
20260503044055 58 0 0.0 0.0 0.00 0.00 0.00 77 1014.5
20260503043552 59 0 0.0 0.0 0.00 0.00 0.00 77 1014.4
20260503043051 59 0 0.0 0.0 0.00 0.00 0.00 75 1014.4
20260503042553 60 0 0.0 0.0 0.00 0.00 0.00 74 1014.3
20260503042053 60 0 0.0 0.0 0.00 0.00 0.00 70 1014.2
20260503041557 60 0 0.0 0.0 0.00 0.00 0.00 71 1014.2
20260503041052 60 0 0.0 0.0 0.00 0.00 0.00 71 1014.1
20260503040553 60 0 0.0 0.0 0.00 0.00 0.00 70 1014.1
20260503040105 61 0 0.0 0.0 0.00 0.00 0.00 70 1014.1
20260503035554 61 0 0.0 0.0 0.00 0.00 0.00 69 1014.1
20260503035053 62 0 0.0 0.0 0.00 0.00 0.00 69 1013.9
20260503034559 62 0 0.0 0.0 0.00 0.00 0.00 66 1013.8
20260503034054 63 0 0.0 0.0 0.00 0.00 0.00 68 1013.8
20260503033553 63 0 0.0 0.0 0.00 0.00 0.00 65 1013.7
20260503033051 64 0 0.0 0.0 0.00 0.00 0.00 62 1013.6
20260503032556 64 0 0.0 0.0 0.00 0.00 0.00 63 1013.6
20260503032053 64 0 0.0 0.0 0.00 0.00 0.00 61 1013.6
20260503031557 65 0 0.0 0.0 0.00 0.00 0.00 61 1013.6
20260503031053 65 0 0.0 0.0 0.00 0.00 0.00 60 1013.6
20260503030555 66 0 0.0 0.0 0.00 0.00 0.00 58 1013.5
20260503030106 66 0 0.0 0.0 0.00 0.00 0.00 58 1013.5
20260503025553 67 0 0.0 0.0 0.00 0.00 0.00 57 1013.5
20260503025055 67 0 0.0 3.5 0.00 0.00 0.00 57 1013.5
20260503024602 68 0 0.0 3.5 0.00 0.00 0.00 55 1013.5
20260503024054 68 273 0.0 3.5 0.00 0.00 0.00 54 1013.5
20260503023555 69 269 0.0 3.5 0.00 0.00 0.00 55 1013.5
20260503023058 69 0 0.0 3.5 0.00 0.00 0.00 52 1013.5
20260503022553 70 289 0.9 7.0 0.00 0.00 0.00 52 1013.5
20260503022053 70 236 0.0 7.0 0.00 0.00 0.00 51 1013.5
20260503021557 70 352 0.0 3.5 0.00 0.00 0.00 50 1013.4
20260503021053 70 290 0.0 3.5 0.00 0.00 0.00 50 1013.5
20260503020553 69 277 0.9 2.6 0.00 0.00 0.00 50 1013.5
20260503015553 70 336 0.9 7.8 0.00 0.00 0.00 49 1013.5
20260503015053 70 108 0.0 7.8 0.00 0.00 0.00 50 1013.5
20260503014606 71 65 1.7 7.8 0.00 0.00 0.00 49 1013.6
20260503014053 71 0 0.0 7.0 0.00 0.00 0.00 48 1013.6
20260503013553 71 51 0.9 4.3 0.00 0.00 0.00 47 1013.7
20260503013102 71 262 1.7 5.2 0.00 0.00 0.00 47 1013.6
20260503012559 72 25 1.7 6.1 0.00 0.00 0.00 48 1013.7
20260503012053 72 264 0.9 6.1 0.00 0.00 0.00 47 1013.7
20260503011554 72 270 0.0 5.2 0.00 0.00 0.00 49 1013.7
20260503011053 72 70 1.7 5.2 0.00 0.00 0.00 48 1013.7
20260503010553 72 103 1.7 5.2 0.00 0.00 0.00 50 1013.8
20260503010052 72 262 1.7 6.1 0.00 0.00 0.00 54 1013.9
20260503005556 72 7 1.7 6.1 0.00 0.00 0.00 55 1013.9
20260503005054 72 139 1.7 3.5 0.00 0.00 0.00 56 1013.9
20260503004600 72 290 0.0 8.7 0.00 0.00 0.00 58 1013.8
20260503004053 72 272 2.6 8.7 0.00 0.00 0.00 57 1013.8
20260503003554 72 0 0.9 8.7 0.00 0.00 0.00 58 1013.8
20260503003054 72 0 0.9 5.2 0.00 0.00 0.00 57 1013.8
20260503002557 72 30 0.9 6.1 0.00 0.00 0.00 58 1013.8
20260503002053 72 271 1.7 7.0 0.00 0.00 0.00 57 1013.8
20260503001554 72 87 1.7 7.0 0.00 0.00 0.00 58 1013.9
20260503001057 72 309 2.6 7.0 0.00 0.00 0.00 57 1013.9
20260503000553 73 326 0.9 5.2 0.00 0.00 0.00 60 1014.0
20260503000103 73 278 1.7 7.0 0.00 0.00 0.00 59 1014.0
20260502235553 73 0 0.9 7.0 0.00 0.00 0.00 59 1013.9
20260502235053 73 4 0.0 4.3 0.00 0.00 0.00 60 1014.0
20260502234603 73 253 0.9 4.3 0.00 0.00 0.00 59 1014.0
20260502234054 73 57 2.6 5.2 0.00 0.00 0.00 59 1014.1
20260502233554 73 251 0.9 5.2 0.00 0.00 0.00 60 1014.1
20260502233054 74 278 0.9 4.3 0.00 0.00 0.00 60 1014.2
20260502232553 74 57 0.9 7.0 0.00 0.00 0.00 60 1014.3
20260502232053 74 3 1.7 7.0 0.00 0.00 0.00 59 1014.3
20260502231552 74 286 0.9 3.5 0.00 0.00 0.00 60 1014.4
20260502231054 74 285 0.9 8.7 0.00 0.00 0.00 59 1014.5
20260502230554 74 281 0.9 8.7 0.00 0.00 0.00 59 1014.6
20260502230056 74 255 1.7 8.7 0.00 0.00 0.00 60 1014.6
20260502225556 74 37 0.0 3.5 0.00 0.00 0.00 61 1014.7
20260502225053 74 350 0.9 3.5 0.00 0.00 0.00 62 1014.8
20260502224555 74 13 0.0 5.2 0.00 0.00 0.00 61 1014.7
20260502224053 74 252 0.0 5.2 0.00 0.00 0.00 60 1014.8
20260502223559 73 263 1.7 5.2 0.00 0.00 0.00 62 1014.9
20260502223105 73 333 1.7 6.1 0.00 0.00 0.00 64 1015.0
20260502222554 73 187 1.7 6.1 0.00 0.00 0.00 63 1015.0
20260502222055 73 211 2.6 7.8 0.00 0.00 0.00 63 1015.1
20260502221601 73 20 1.7 7.8 0.00 0.00 0.00 62 1015.2
20260502221053 73 197 0.9 6.1 0.00 0.00 0.00 65 1015.1
20260502220557 73 334 1.7 6.1 0.00 0.00 0.00 63 1015.1
20260502215554 73 120 0.9 4.3 0.00 0.00 0.00 62 1015.3
20260502215055 73 313 1.7 7.0 0.00 0.00 0.00 62 1015.3
20260502214613 73 290 1.7 7.0 0.00 0.00 0.00 64 1015.3
20260502214054 72 196 0.9 6.1 0.00 0.00 0.00 62 1015.3
20260502213557 72 281 1.7 6.1 0.00 0.00 0.00 62 1015.5
20260502213119 72 333 2.6 5.2 0.00 0.00 0.00 60 1015.6
20260502212553 73 351 0.9 5.2 0.00 0.00 0.00 60 1015.7
20260502212054 73 269 0.9 3.5 0.00 0.00 0.00 60 1015.7
20260502211556 73 293 0.0 4.3 0.00 0.00 0.00 62 1015.7
20260502211054 72 359 0.9 6.1 0.00 0.00 0.00 66 1015.8
20260502210554 71 236 1.7 6.1 0.00 0.00 0.00 64 1015.7
20260502210052 71 0 0.9 7.8 0.00 0.00 0.00 65 1015.7
20260502205556 71 276 1.7 7.8 0.00 0.00 0.00 66 1015.7
20260502205057 70 304 2.6 7.8 0.00 0.00 0.00 65 1015.8
20260502204553 71 281 0.9 5.2 0.00 0.00 0.00 67 1015.9
20260502204058 71 0 0.9 6.1 0.00 0.00 0.00 70 1016.0
20260502203555 70 0 1.7 6.1 0.00 0.00 0.00 68 1016.1
20260502203113 70 313 1.7 5.2 0.00 0.00 0.00 68 1016.2
20260502202602 71 276 0.9 4.3 0.00 0.00 0.00 67 1016.2
20260502202053 70 96 0.9 4.3 0.00 0.00 0.00 69 1016.4
20260502201558 71 28 0.9 5.2 0.00 0.00 0.00 66 1016.4
20260502201055 70 341 0.9 5.2 0.00 0.00 0.00 67 1016.4
20260502200554 70 124 0.9 7.8 0.00 0.00 0.00 69 1016.4
20260502200059 69 286 1.7 7.8 0.00 0.00 0.00 69 1016.5
20260502195553 69 4 0.0 3.5 0.00 0.00 0.00 69 1016.4
20260502195057 69 26 0.9 5.2 0.00 0.00 0.00 71 1016.5